SAT-59862

Operational
NORAD ID: 59862 Owner: SpaceX

Über SAT-59862

Beschreibung wird geladen...

Live-Position

3D-Globus wird geladen...

Nächste Überflüge

Höhenverlauf

Altitude vs Time

uPlot chart will show altitude changes over time

Zweizeiliger Elementsatz

1 25544U 98067A 24001.50000000 .00002182 00000-0 42575-4 0 9990
2 25544 51.6461 339.7939 0001397 83.2776 276.8615 15.48919103123456
Epoch: 1. Jan. 2024 • Age: N/A

Aktueller Status

Position data unavailable

Große Konstellationen

Loading constellations...